sat.trackr.live / text

‹ back to catalog

STARLINK-34793

NORAD 65064 · 2025-165J

PAYLOAD ACTIVE UNKNOWN

§ Identity

Operator
Country
US
Launch date
2025-07-31
Launch site
AFWTR
Launch vehicle
Mass (kg)
RCS (m²)

Purposes: comms

External: N2YO · Heavens-Above · Gunter

§ Orbital elements

Epoch: 2026-09-20T22:18:09.857664Z

Period
93.91 min
Inclination
97.2864°
Eccentricity
0.0002630
Mean motion
15.33447995 rev/d
Perigee alt
463.7 km
Apogee alt
467.3 km
Semi-major
6,843.7 km
B*
2.6065e-4
RAAN
335.1789°
Arg perigee
83.4016°
Mean anomaly
276.7526°
Rev number
6,419

§ Raw data

STARLINK-347931 65064U 25165J   26263.92928076  .00008350  00000+0  26065-3 0  99992 65064  97.2864 335.1789 0002630  83.4016 276.7526 15.33447995 64193

JSON: /api/v1/satellites/65064 · /tle

For live sub-satellite position, see the globe view (requires WebGL).

§ Visibility from observer

Set your observer location to see the next 7 days of passes ≥ 10°. The values pass through the URL so the page stays shareable.

No JS? Fill the form by hand. The geolocation button needs JavaScript.